When you browse on this site, cookies collect data to enhance your experience and personalize the content and advertising you see.
Visit our Privacy Policy to learn more. By continuing to use the site, you agree to this use of cookies and data.
  • In Austria
  • List of Countries
  • For 7 days
  • Water Temperature
  • Weather Map
  • News
  • Weather Widgets
  • user-avatar
    Login

    Hourly Weather Sopo

    Today, 17 September, Tuesday

    Time Temperature Precipitation Wind Pressure Humidity
    00:00 +11°C° 0 mm 1 mps 555 mmHg 93%
    01:00 +10°C° 0 mm 1 mps 554 mmHg 92%
    02:00 +10°C° 0 mm 1 mps 554 mmHg 92%
    03:00 +10°C° 0 mm 1 mps 554 mmHg 91%
    04:00 +10°C° 0 mm 1 mps 554 mmHg 91%
    05:00 +11°C° 0 mm 1 mps 554 mmHg 88%
    06:00 +12°C° 0 mm 1 mps 555 mmHg 86%
    07:00 +13°C° 0 mm 1 mps 556 mmHg 84%
    08:00 +15°C° 0 mm 1 mps 558 mmHg 73%
    09:00 +19°C° 0 mm 1 mps 559 mmHg 62%
    10:00 +20°C° 0 mm 2 mps 560 mmHg 52%
    11:00 +21°C° 0.2 mm 2 mps 560 mmHg 52%
    12:00 +21°C° 0.2 mm 2 mps 559 mmHg 53%
    13:00 +21°C° 0.2 mm 2 mps 559 mmHg 53%
    14:00 +20°C° 1 mm 2 mps 558 mmHg 60%
    15:00 +19°C° 1 mm 2 mps 557 mmHg 66%
    16:00 +18°C° 1 mm 2 mps 556 mmHg 72%
    17:00 +16°C° 1 mm 1 mps 556 mmHg 79%
    18:00 +15°C° 1 mm 1 mps 555 mmHg 85%
    19:00 +13°C° 1 mm 1 mps 555 mmHg 92%
    20:00 +13°C° 0.2 mm 1 mps 555 mmHg 92%
    21:00 +13°C° 0.2 mm 1 mps 555 mmHg 92%
    22:00 +12°C° 0.2 mm 1 mps 556 mmHg 93%
    23:00 +12°C° 0 mm 1 mps 555 mmHg 93%

    Tomorrow, 18 September, Wednesday

    Time Temperature Precipitation Wind Pressure Humidity
    00:00 +12°C° 0 mm 1 mps 555 mmHg 93%
    01:00 +11°C° 0 mm 0 mps 555 mmHg 93%
    02:00 +11°C° 0 mm 0 mps 555 mmHg 93%
    03:00 +11°C° 0 mm 0 mps 555 mmHg 92%
    04:00 +11°C° 0 mm 0 mps 555 mmHg 91%
    05:00 +11°C° 0.4 mm 0 mps 555 mmHg 91%
    06:00 +11°C° 0.4 mm 0 mps 556 mmHg 91%
    07:00 +12°C° 0.4 mm 0 mps 556 mmHg 90%
    08:00 +12°C° 0.5 mm 0 mps 556 mmHg 88%
    09:00 +14°C° 0.5 mm 1 mps 557 mmHg 86%
    10:00 +15°C° 0.5 mm 1 mps 557 mmHg 84%
    11:00 +16°C° 0.2 mm 1 mps 557 mmHg 77%
    12:00 +19°C° 0.2 mm 1 mps 557 mmHg 70%
    13:00 +21°C° 0.2 mm 1 mps 558 mmHg 64%
    14:00 +20°C° 1.1 mm 1 mps 557 mmHg 70%
    15:00 +19°C° 1.1 mm 1 mps 556 mmHg 76%
    16:00 +18°C° 1.1 mm 1 mps 555 mmHg 82%
    17:00 +16°C° 1.3 mm 1 mps 555 mmHg 86%
    18:00 +15°C° 1.3 mm 1 mps 555 mmHg 90%
    19:00 +13°C° 1.3 mm 0 mps 554 mmHg 94%
    20:00 +13°C° 2.5 mm 0 mps 555 mmHg 95%
    21:00 +13°C° 2.5 mm 1 mps 555 mmHg 95%
    22:00 +13°C° 2.5 mm 1 mps 555 mmHg 95%
    23:00 +13°C° 0.2 mm 1 mps 555 mmHg 94%

    Day after tomorrow, 19 September, Thursday

    Time Temperature Precipitation Wind Pressure Humidity
    00:00 +13°C° 0.2 mm 1 mps 555 mmHg 94%
    01:00 +11°C° 0.2 mm 0 mps 554 mmHg 93%
    02:00 +11°C° 0 mm 0 mps 554 mmHg 92%
    03:00 +11°C° 0 mm 0 mps 554 mmHg 91%
    04:00 +11°C° 0 mm 0 mps 554 mmHg 90%
    05:00 +12°C° 0.1 mm 0 mps 555 mmHg 90%
    06:00 +12°C° 0.1 mm 0 mps 555 mmHg 89%
    07:00 +12°C° 0.1 mm 0 mps 556 mmHg 88%
    08:00 +13°C° 0.4 mm 0 mps 556 mmHg 85%
    09:00 +14°C° 0.4 mm 0 mps 557 mmHg 81%
    10:00 +15°C° 0.4 mm 0 mps 557 mmHg 78%
    11:00 +18°C° 0.7 mm 1 mps 557 mmHg 76%
    12:00 +19°C° 0.7 mm 1 mps 557 mmHg 74%
    13:00 +20°C° 0.7 mm 1 mps 557 mmHg 72%
    14:00 +19°C° 1.8 mm 1 mps 556 mmHg 77%
    15:00 +18°C° 1.8 mm 1 mps 555 mmHg 82%
    16:00 +16°C° 1.8 mm 1 mps 555 mmHg 87%
    17:00 +15°C° 1.5 mm 1 mps 555 mmHg 89%
    18:00 +13°C° 1.5 mm 0 mps 554 mmHg 92%
    19:00 +13°C° 1.5 mm 0 mps 554 mmHg 94%
    20:00 +12°C° 0.3 mm 0 mps 555 mmHg 94%
    21:00 +12°C° 0.3 mm 0 mps 555 mmHg 94%
    22:00 +12°C° 0.3 mm 0 mps 555 mmHg 94%
    23:00 +12°C° 0.2 mm 0 mps 555 mmHg 94%

    20 September, Friday

    Time Temperature Precipitation Wind Pressure Humidity
    00:00 +12°C° 0.2 mm 0 mps 555 mmHg 94%
    01:00 +12°C° 0.2 mm 0 mps 555 mmHg 94%
    02:00 +12°C° 1.7 mm 0 mps 555 mmHg 95%
    03:00 +12°C° 1.7 mm 0 mps 555 mmHg 96%
    04:00 +11°C° 1.7 mm 0 mps 555 mmHg 97%
    05:00 +11°C° 2.3 mm 0 mps 555 mmHg 97%
    06:00 +12°C° 2.3 mm 0 mps 556 mmHg 96%
    07:00 +12°C° 2.3 mm 0 mps 557 mmHg 96%
    08:00 +12°C° 1.9 mm 0 mps 557 mmHg 93%
    09:00 +13°C° 1.9 mm 0 mps 558 mmHg 90%
    10:00 +13°C° 1.9 mm 0 mps 558 mmHg 86%
    11:00 +15°C° 0.5 mm 1 mps 558 mmHg 83%
    12:00 +16°C° 0.5 mm 1 mps 558 mmHg 80%
    13:00 +17°C° 0.5 mm 2 mps 558 mmHg 77%
    14:00 +17°C° 1.1 mm 2 mps 558 mmHg 80%
    15:00 +16°C° 1.1 mm 1 mps 557 mmHg 83%
    16:00 +15°C° 1.1 mm 1 mps 556 mmHg 87%
    17:00 +14°C° 0.5 mm 1 mps 556 mmHg 89%
    18:00 +13°C° 0.5 mm 1 mps 555 mmHg 91%
    19:00 +12°C° 0.5 mm 1 mps 555 mmHg 92%
    20:00 +12°C° 0.1 mm 1 mps 555 mmHg 92%
    21:00 +12°C° 0.1 mm 1 mps 556 mmHg 92%
    22:00 +12°C° 0.1 mm 1 mps 556 mmHg 92%
    23:00 +11°C° 0 mm 1 mps 556 mmHg 92%

    21 September, Saturday

    Time Temperature Precipitation Wind Pressure Humidity
    00:00 +11°C° 0 mm 1 mps 555 mmHg 93%
    01:00 +11°C° 0 mm 1 mps 555 mmHg 93%
    02:00 +10°C° 0 mm 1 mps 555 mmHg 93%
    03:00 +10°C° 0 mm 1 mps 555 mmHg 92%
    04:00 +10°C° 0 mm 1 mps 555 mmHg 92%
    05:00 +11°C° 0 mm 1 mps 555 mmHg 90%
    06:00 +12°C° 0 mm 1 mps 556 mmHg 89%
    07:00 +12°C° 0 mm 1 mps 557 mmHg 87%
    08:00 +14°C° 0.2 mm 1 mps 558 mmHg 80%
    09:00 +16°C° 0.2 mm 1 mps 559 mmHg 73%
    10:00 +18°C° 0.2 mm 2 mps 560 mmHg 66%
    11:00 +18°C° 0.6 mm 2 mps 559 mmHg 65%
    12:00 +19°C° 0.6 mm 3 mps 559 mmHg 63%
    13:00 +19°C° 0.6 mm 3 mps 559 mmHg 61%
    14:00 +19°C° 0.6 mm 3 mps 558 mmHg 63%
    15:00 +18°C° 0.6 mm 3 mps 557 mmHg 64%
    16:00 +18°C° 0.6 mm 3 mps 556 mmHg 66%
    17:00 +16°C° 0.2 mm 2 mps 556 mmHg 74%
    18:00 +14°C° 0.2 mm 2 mps 555 mmHg 81%
    19:00 +12°C° 0.2 mm 1 mps 554 mmHg 89%
    20:00 +11°C° 0 mm 1 mps 554 mmHg 89%
    21:00 +11°C° 0 mm 1 mps 555 mmHg 89%
    22:00 +10°C° 0 mm 1 mps 555 mmHg 90%
    23:00 +10°C° 0 mm 1 mps 554 mmHg 89%

    22 September, Sunday

    Time Temperature Precipitation Wind Pressure Humidity
    00:00 +10°C° 0 mm 1 mps 554 mmHg 88%
    01:00 +10°C° 0 mm 1 mps 554 mmHg 87%
    02:00 +10°C° 0 mm 1 mps 554 mmHg 86%
    03:00 +10°C° 0 mm 1 mps 554 mmHg 86%
    04:00 +10°C° 0 mm 1 mps 554 mmHg 86%
    05:00 +11°C° 0 mm 1 mps 555 mmHg 83%
    06:00 +11°C° 0 mm 1 mps 555 mmHg 81%
    07:00 +12°C° 0 mm 1 mps 556 mmHg 79%
    08:00 +14°C° 0 mm 1 mps 557 mmHg 72%
    09:00 +18°C° 0 mm 1 mps 559 mmHg 65%
    10:00 +20°C° 0 mm 1 mps 560 mmHg 58%
    11:00 +19°C° 0.6 mm 2 mps 559 mmHg 61%
    12:00 +19°C° 0.6 mm 2 mps 558 mmHg 64%
    13:00 +18°C° 0.6 mm 2 mps 558 mmHg 68%
    14:00 +18°C° 0.9 mm 2 mps 557 mmHg 71%
    15:00 +17°C° 0.9 mm 2 mps 557 mmHg 74%
    16:00 +16°C° 0.9 mm 2 mps 556 mmHg 77%
    17:00 +15°C° 1.2 mm 2 mps 556 mmHg 83%
    18:00 +14°C° 1.2 mm 1 mps 555 mmHg 88%
    19:00 +12°C° 1.2 mm 1 mps 555 mmHg 93%
    20:00 +12°C° 2.5 mm 1 mps 555 mmHg 94%
    21:00 +12°C° 2.5 mm 1 mps 555 mmHg 94%
    22:00 +12°C° 2.5 mm 1 mps 556 mmHg 95%
    23:00 +11°C° 0.1 mm 0 mps 556 mmHg 94%
    Show more